Regional Weather Roundup
Issued by NWS Cleveland, OH

Home | Current Version | Previous Version | Text Only | Print | Product List | Glossary Off
Versions: 1 2 3 4 5 6 7 8 9 10 11 12 13 14 15 16 17 18 19 20 21 22 23 24 25 26 27 28 29 30 31 32 33 34 35 36 37 38 39 40 41 42 43 44 45 46 47 48 49 50

000
ASUS41 KCLE 250410
RWRCLE
OHIO REGIONAL WEATHER ROUNDUP
NATIONAL WEATHER SERVICE WILMINGTON, OH
1100 PM EST FRI FEB 24 2017

NOTE: "FAIR" INDICATES FEW OR NO CLOUDS BELOW 12,000 FEET WITH NO
SIGNIFICANT WEATHER AND/OR OBSTRUCTIONS TO VISIBILITY.

OHZ001>008-015>018-024>027-034-035-043-044-250500-
   NORTHWEST OHIO

CITY           SKY/WX    TMP DP  RH WIND       PRES   REMARKS
DEFIANCE       CLOUDY    49  45  86 W13G21    29.51S
FINDLAY        LGT RAIN  56  51  84 W18G28    29.51R
TOLEDO EXPRESS LGT RAIN  55  55 100 W18       29.48R
TOLEDO EXEC    LGT RAIN  56  55  97 SW13      29.48R
LIMA           LGT RAIN  53  53 100 W22       29.54R
$$

OHZ009>014-019>023-028>033-038-089-250500-
   NORTHEAST OHIO

CITY           SKY/WX    TMP DP  RH WIND       PRES   REMARKS
CLE-HOPKINS    TSTM      60  55  83 SW13G21   29.57R
CLE-LAKEFRONT  TSTM      57  53  86 SW7       29.52F FOG
CUY CO. ARPT   LGT RAIN  57  52  82 NW14      29.53F
LORAIN-ELYRIA  TSTM      59  52  77 S18G25    29.51R
ASHTABULA      MOCLDY    63  47  55 W17G26    29.56R
AKRON-CANTON   MOCLDY    67  47  48 S15       29.52F
WOOSTER        LGT RAIN  60  53  77 W18       29.56R
MANSFIELD      LGT RAIN  57  55  93 S8        29.51F
YOUNGSTOWN     CLOUDY    66  47  50 SE9       29.53F
$$

OHZ042-051>053-060>062-070>072-077>081-250500-
  SOUTHWEST OHIO

CITY           SKY/WX    TMP DP  RH WIND       PRES   REMARKS
CINC-COVINGTON CLOUDY    55  49  80 NW24G31   29.61R
CINC-LUNKEN    MOCLDY    60  57  89 SW10      29.57S
HAMILTON       CLOUDY    56  47  71 W12G23    29.62R
DAYTON         CLOUDY    53  49  86 W22G30    29.58R
WRIGHT-PAT AFB MOCLDY    59  59 100 W26G33    29.56R
DAYTON GENERAL CLOUDY    56  52  86 NW20G30   29.57R
WILMINGTON     LGT RAIN  58  56  93 S10       29.56R
$$

OHZ036-037-039>041-045>050-054>059-063>069-073>076-082>088-250500-
  CENTRAL AND SOUTHEAST OHIO

CITY           SKY/WX    TMP DP  RH WIND       PRES   REMARKS
COLUMBUS       TSTM      60  55  83 S14       29.56R
OSU AIRPORT    LGT RAIN  60  55  83 SW13      29.53F
BOLTON FIELD   RAIN      58  56  91 SW16      29.56S
RICKENBACK AFB TSTM      57  54  92 S12       29.57R
NEWARK         LGT RAIN  66  51  58 W21       29.54R
MARION         TSTM      59  55  87 SW20G28   29.52R
LANCASTER      HVY RAIN  59  53  80 W15G46    29.60R
ZANESVILLE     CLOUDY    68  47  46 S12       29.55S
NEW PHILLY     FAIR      63  49  60 SE8       29.54F
$$




USA.gov is the U.S. government's official web portal to all federal, state and local government web resources and services.